Weather History for Bryce Canyon, UT

Change the Weather History Date:

Thursday, October 11, 2012

  Actual Average Record
Temperature  
Mean Temperature 41 °F -  
Max Temperature 57 °F 61 °F 73 °F (1965)
Min Temperature 27 °F 28 °F 14 °F (1973)
Degree Days  
Heating Degree Days 24    
Moisture  
Dew Point 34 °F    
Average Humidity 75    
Maximum Humidity 90    
Minimum Humidity 40    
Precipitation  
Precipitation 0.14 in - - ()
Sea Level Pressure  
Sea Level Pressure 29.97 in    
Wind  
Wind Speed 6 mph (SSE)    
Max Wind Speed 21 mph    
Max Gust Speed 25 mph    
Visibility 9 miles    
Events Rain    
Averages and records for this station are not official NWS values.
T = Trace of Precipitation, MM = Missing Value Source: NWS Daily Summary

Daily Weather History Graph

Daily Weather History Graph

Search for Another Location

Airport:

Trip Planner

Search our weather history database for the weather conditions in past years. The results will help you decide how hot, cold, wet, or windy it might be!

Date:

Astronomy

Oct. 11, 2012 Rise Set
Actual Time 7:33 AM MDT 6:56 PM MDT
Civil Twilight 7:07 AM MDT 7:22 PM MDT
Nautical Twilight 6:36 AM MDT 7:52 PM MDT
Astronomical Twilight 6:06 AM MDT 8:22 PM MDT
Moon 3:20 AM MDT (10/11) 4:31 PM MDT (10/11)
Length of Visible Light 12h 14m
Length of Day
11h 22m
Waning Crescent, 18% of the Moon is Illuminated
Oct 11
Waning Crescent
Oct 15
New
Oct 21
First Quarter
Oct 29
Full
Nov 6
Last Quarter

Hourly Weather History & Observations

Time (MDT) Temp. Windchill Dew Point Humidity Pressure Visibility Wind Dir Wind Speed Gust Speed Precip Events Conditions
12:53 AM 35.1 °F 32.2 °F 26.1 °F 70% 29.92 in 10.0 mi West 3.5 mph - N/A   Clear
1:53 AM 37.0 °F 31.6 °F 28.0 °F 70% 29.90 in 10.0 mi West 6.9 mph - N/A   Clear
2:53 AM 34.0 °F 31.0 °F 27.0 °F 75% 29.91 in 10.0 mi West 3.5 mph - N/A   Clear
3:53 AM 30.9 °F - 25.0 °F 79% 29.92 in 10.0 mi Calm Calm - N/A   Clear
4:53 AM 30.9 °F - 26.1 °F 82% 29.92 in 10.0 mi Calm Calm - N/A   Clear
5:53 AM 34.0 °F 29.8 °F 28.0 °F 79% 29.91 in 10.0 mi West 4.6 mph - N/A   Clear
6:53 AM 28.0 °F 21.7 °F 24.1 °F 85% 29.97 in 10.0 mi WSW 5.8 mph - N/A   Clear
7:53 AM 27.0 °F - 24.1 °F 89% 30.04 in 10.0 mi Calm Calm - N/A   Clear
8:53 AM 42.1 °F 40.2 °F 30.9 °F 65% 29.97 in 10.0 mi Variable 3.5 mph - N/A   Clear
9:53 AM 51.1 °F - 30.9 °F 46% 29.96 in 10.0 mi NNE 3.5 mph - N/A   Clear
10:53 AM 55.9 °F - 32.0 °F 40% 29.95 in 10.0 mi SSE 17.3 mph 23.0 mph N/A   Clear
11:53 AM 53.1 °F - 32.0 °F 45% 29.99 in 10.0 mi SSE 20.7 mph 25.3 mph 0.00 in Rain Light Rain
12:53 PM 48.0 °F - 37.9 °F 68% 30.04 in 7.0 mi South 9.2 mph 19.6 mph 0.00 in Rain Light Rain
1:53 PM 44.1 °F 38.6 °F 39.9 °F 85% 30.03 in 5.0 mi SE 10.4 mph - 0.04 in Rain Light Rain
2:02 PM 44.6 °F 40.2 °F 41.0 °F 87% 30.21 in 5.0 mi SE 8.1 mph - 0.01 in Rain Light Rain
2:29 PM 44.6 °F 40.7 °F 39.2 °F 81% 30.19 in 6.0 mi ESE 6.9 mph - 0.06 in Rain Rain
2:53 PM 45.0 °F 40.1 °F 42.1 °F 90% 30.01 in 10.0 mi ESE 9.2 mph - 0.08 in Rain Light Rain
5:53 PM 50.0 °F - 41.0 °F 71% 29.92 in 10.0 mi NE 13.8 mph - 0.00 in   Overcast
7:53 PM 45.0 °F 42.6 °F 39.9 °F 82% 29.96 in 10.0 mi ENE 4.6 mph - N/A   Overcast
8:53 PM 45.0 °F 42.6 °F 39.0 °F 80% 29.90 in 10.0 mi NNE 4.6 mph - 0.00 in   Overcast
9:53 PM 45.0 °F 41.2 °F 39.0 °F 80% 29.87 in 10.0 mi WNW 6.9 mph - N/A   Overcast
10:53 PM 46.0 °F 43.9 °F 39.9 °F 79% 29.86 in 7.0 mi SE 4.6 mph 17.3 mph 0.02 in Rain Light Rain
11:53 PM 42.1 °F 38.4 °F 39.0 °F 89% 29.87 in 10.0 mi SSE 5.8 mph - 0.00 in   Scattered Clouds